Regional Weather Roundup
Issued by NWS

Home | Current Version | Previous Version | Text Only | Print | Product List | Glossary Off
Versions: 1 2 3 4 5 6 7 8 9 10 11 12 13 14 15 16 17 18 19 20 21 22 23 24 25 26 27 28 29 30 31 32 33 34 35 36 37 38 39 40 41 42 43 44 45 46 47 48 49 50

000
ASUS45 KCYS 110510
RWRWY

WYOMING REGIONAL WEATHER ROUNDUP
NATIONAL WEATHER SERVICE CHEYENNE WY
1100 PM MDT THU JUL 10 2014

NOTE:  "FAIR" INDICATES FEW OR NO CLOUDS BELOW 12,000 FEET
WITH NO SIGNIFICANT WEATHER AND/OR OBSTRUCTIONS TO VISIBILITY.

WYZ001-110600-
YELLOWSTONE NATIONAL PARK

CITY           SKY/WX    TMP DP  RH WIND       PRES   REMARKS
LK YELLOWSTONE   N/A     52  47  83 CALM      30.27R
W YELLOWSTONE  NOT AVBL

$$
WYZ002>013-054>058-071-098>099-110600-
NORTHERN WYOMING

CITY           SKY/WX    TMP DP  RH WIND       PRES   REMARKS
JACKSON        PTCLDY    61  50  67 N3        30.15R
CODY           MOCLDY    66  57  72 N3        30.06R
GREYBULL       PTCLDY    72  58  61 CALM      29.96R
WORLAND        CLOUDY    72  55  55 CALM      29.97R
SHERIDAN       CLEAR     62  53  72 CALM      29.96R
BUFFALO        PTCLDY    69  54  58 W9        30.05R
GILLETTE       CLOUDY    70  56  61 S9        29.99R
HULETT         FAIR      70  57  64 MISG      30.00
NEWCASTLE      FAIR      64  59  82 MISG      30.03

$$
WYZ014>020-022>026-101>103-110600-
CENTRAL WYOMING

CITY           SKY/WX    TMP DP  RH WIND       PRES   REMARKS
BIG PINEY      PTCLDY    61  54  77 S6        30.23R
PINEDALE       PTCLDY    61  52  72 CALM      30.24R
DUBOIS         FAIR      63  45  51 NW7       30.19S
LANDER         CLOUDY    69  57  65 W7        30.06S
RIVERTON       MOCLDY    71  53  52 S10       30.07R
CASPER         MOCLDY    62  56  80 SW6       30.07S
DOUGLAS        CLOUDY    68  61  78 SE8       30.07R

$$
WYZ021-027>030-104>119-110600-
SOUTHERN WYOMING

CITY           SKY/WX    TMP DP  RH WIND       PRES   REMARKS
EVANSTON       CLOUDY    59  54  83 SW16      30.24R
KEMMERER       CLOUDY    61  50  67 S5        30.25S
FORT BRIDGER   FAIR      61  54  76 S20       30.25R
ROCK SPRINGS   CLOUDY    64  53  67 W16G22    30.22R
DIXON          MOCLDY    63  52  67 E7        30.21S
RAWLINS        CLOUDY    61  57  87 CALM      30.21S
SARATOGA       FAIR      59  52  77 S5        30.24S
LARAMIE        LGT RAIN  60  56  86 CALM      30.25S
CHEYENNE       CLOUDY    66  55  67 N7        30.16F
TORRINGTON     CLOUDY    66  65  96 S6        30.00S

$$



USA.gov is the U.S. government's official web portal to all federal, state and local government web resources and services.